Location: Newark
(44.2003°N, 3.2583°E)
Time: 17:05:05
(UTC+00:00)

Envisat - Pass Details

Date: 22 September 2019
Orbit: 764 x 766 km, 98.1° (Epoch: 22 October)

Event Time Altitude Azimuth Distance (km) Brightness Sun altitude
Rises 18:07:54 0° 174° (S) 3,219 6.1 -4.9°
Reaches altitude 10° 18:10:13 10° 178° (S) 2,297 5.4 -5.3°
Maximum altitude 18:15:14 63° 259° (W) 858 3.6 -6.2°
Drops below altitude 10° 18:20:17 10° 340° (NNW) 2,313 5.9 -7.1°
Sets 18:22:38 0° 344° (NNW) 3,244 6.6 -7.5°
